Find Starlink 2722

NORAD ID: 48472 Int'l Des: 2021-040 Owner: SPXS Country: US Constellation: starlink operational
LEOCIRCULARSTARLINK_TYPE

Live Position

Loading 3D Globe...

About Starlink 2722

Description loading...

Upcoming Passes

Passes for default location (London). Set your location on the main map for personalized predictions.

Altitude History

Loading altitude history...

Two-Line Element Set

1 48472U 21040AW 26105.17382007 .00013578 00000-0 84497-3 0 9993
2 48472 53.0617 27.0836 0001997 107.1524 252.9685 15.09889850271999
Epoch: Apr 15, 2026 • Age: 6 hours

Current Status

Altitude 556.3 km
Velocity 7.58 km/s
Sub-Earth Point -53.21°S, 59.47°W
Launch Date May 9, 2021
Age 4.9 years
Type internet

Technical Details

Classification Payload
Mass 260.00 kg
Dry Mass 248.00 kg
Total Mass 260.00 kg
Length 0.20 m
Diameter 2.80 m
Span 9.00 m
Shape Box + pan
Manufacturer SPXS
Bus Type Starlink
Phase Status In Orbit
Owner/State SPXS/US

Most Searched